Date String (YYYY-MM-DD hh:mm:ss) UTC,Instrument flags,absolute air pressure of the measurement (hPa),sample flow rate (lpm),inlet stack bypass flow (lpm),air temperature of the measurement (°C),ambient temperature measured by the external sensor (°C),aerosol sample conditioner tube jacket temperature (°C),OPC LED temperature (°C),internal box temperature (°C),relative humidity of the measurement (%),span deviation,mass concentration of particles derived from Lorenz-Mie calculation of OPC scattering (μg/m³),mass concentration of particles derived from Lorenz-Mie calculation of OPC scattering (μg/m³),mass concentration of particles derived from Lorenz-Mie calculation of OPC scattering (μg/m³)
DateTimeUTC,F1_M11,P_M11,Q1_M11,Q2_M11,T1_M11,T2_M11,T3_M11,T4_M11,T5_M11,U1_M11,ZSPAN_M11,X2_M11,X0_M11,X1_M11
2024-04-15 07:00:00,SystemResetWarning,0820.6,5.00,000.00,026.1,025.4,000.0,034.4,027.9,008.4,0000.0,0003.36,0008.43,0002.25
2024-04-15 07:01:00,SystemResetWarning,0820.7,5.00,000.00,026.1,025.4,000.0,034.4,027.9,008.4,0000.0,0003.37,0008.65,0002.26
2024-04-15 07:02:00,SystemResetWarning,0820.7,4.99,000.00,026.1,025.4,000.0,034.5,027.9,008.4,0000.0,0003.35,0008.36,0002.26
2024-04-15 07:03:00,SystemResetWarning,0820.7,5.00,000.00,026.1,025.4,000.0,034.5,028.0,008.4,0000.0,0003.30,0008.42,0002.26
2024-04-15 07:04:00,SystemResetWarning,0820.7,5.01,000.00,026.1,025.4,000.0,034.5,027.9,008.4,0000.0,0003.29,0008.58,0002.27
2024-04-15 07:05:00,SystemResetWarning,0820.7,5.01,000.00,026.1,025.4,000.0,034.5,027.9,008.4,0000.0,0003.29,0008.62,0002.26
2024-04-15 07:06:00,SystemResetWarning,0820.7,4.98,000.00,026.1,025.4,000.0,034.5,027.9,008.4,0000.0,0003.29,0008.69,0002.25
2024-04-15 07:07:00,SystemResetWarning,0820.7,4.99,000.00,026.2,025.4,000.0,034.5,027.9,008.3,0000.0,0003.22,0008.47,0002.24
2024-04-15 07:08:00,SystemResetWarning,0820.8,5.01,000.00,026.1,025.4,000.0,034.5,027.9,008.2,0000.0,0003.19,0008.38,0002.22
2024-04-15 07:09:00,SystemResetWarning,0820.7,5.01,000.00,026.2,025.4,000.0,034.5,028.0,008.2,0000.0,0003.22,0008.19,0002.22
2024-04-15 07:10:00,SystemResetWarning,0820.7,5.00,000.00,026.2,025.4,000.0,034.5,028.0,008.2,0000.0,0003.24,0008.93,0002.22
2024-04-15 07:11:00,SystemResetWarning,0820.6,4.99,000.00,026.2,025.5,000.0,034.5,028.0,008.2,0000.0,0003.25,0009.63,0002.22
2024-04-15 07:12:00,SystemResetWarning,0820.6,4.98,000.00,026.2,025.5,000.0,034.5,028.0,008.2,0000.0,0003.27,0010.22,0002.21
2024-04-15 07:13:00,SystemResetWarning,0820.6,5.00,000.00,026.2,025.5,000.0,034.5,028.0,008.3,0000.0,0003.28,0011.51,0002.21
2024-04-15 07:14:00,SystemResetWarning,0820.6,5.01,000.00,026.2,025.5,000.0,034.5,028.0,008.3,0000.0,0003.32,0011.63,0002.22
2024-04-15 07:15:00,SystemResetWarning,0820.6,5.01,000.00,026.2,025.5,000.0,034.5,028.0,008.3,0000.0,0003.31,0011.56,0002.20
2024-04-15 07:16:00,SystemResetWarning,0820.6,4.99,000.00,026.2,025.5,000.0,034.6,028.0,008.4,0000.0,0003.33,0011.91,0002.20
2024-04-15 07:17:00,SystemResetWarning,0820.6,5.00,000.00,026.2,025.5,000.0,034.6,028.0,008.2,0000.0,0003.33,0012.63,0002.19
2024-04-15 07:18:00,SystemResetWarning,0820.6,5.01,000.00,026.2,025.5,000.0,034.6,028.0,008.0,0000.0,0003.34,0012.70,0002.17
2024-04-15 07:19:00,SystemResetWarning,0820.7,5.01,000.00,026.2,025.5,000.0,034.6,028.0,008.0,0000.0,0003.36,0012.79,0002.17
2024-04-15 07:20:00,SystemResetWarning,0820.8,5.01,000.00,026.2,025.5,000.0,034.6,028.0,008.0,0000.0,0003.35,0013.20,0002.16
2024-04-15 07:21:00,SystemResetWarning,0820.9,5.00,000.00,026.2,025.5,000.0,034.6,028.1,008.0,0000.0,0003.37,0013.71,0002.16
2024-04-15 07:22:00,SystemResetWarning,0820.7,4.99,000.00,026.2,025.5,000.0,034.6,028.0,007.9,0000.0,0003.37,0012.96,0002.15
2024-04-15 07:23:00,SystemResetWarning,0820.9,5.00,000.00,026.2,025.6,000.0,034.6,028.1,007.8,0000.0,0003.39,0013.23,0002.16
2024-04-15 07:24:00,SystemResetWarning,0820.9,5.00,000.00,026.3,025.6,000.0,034.6,028.1,007.8,0000.0,0003.40,0011.76,0002.17
2024-04-15 07:25:00,SystemResetWarning,0820.7,5.00,000.00,026.3,025.6,000.0,034.6,028.1,007.8,0000.0,0003.38,0011.06,0002.17
2024-04-15 07:26:00,SystemResetWarning,0820.6,5.00,000.00,026.3,025.6,000.0,034.6,028.1,007.8,0000.0,0003.35,0010.50,0002.18
2024-04-15 07:27:00,SystemResetWarning,0820.3,5.00,000.00,026.3,025.6,000.0,034.6,028.1,007.8,0000.0,0003.36,0010.40,0002.19
2024-04-15 07:28:00,SystemResetWarning,0820.4,5.00,000.00,026.3,025.6,000.0,034.7,028.1,007.8,0000.0,0003.33,0009.68,0002.20
2024-04-15 07:29:00,SystemResetWarning,0820.4,5.00,000.00,026.3,025.6,000.0,034.7,028.1,007.8,0000.0,0003.34,0009.25,0002.20
2024-04-15 07:30:00,SystemResetWarning,0820.3,5.00,000.00,026.3,025.6,000.0,034.7,028.1,007.8,0000.0,0003.37,0009.38,0002.22
2024-04-15 07:31:00,SystemResetWarning,0820.4,5.00,000.00,026.3,025.7,000.0,034.7,028.1,007.8,0000.0,0003.33,0008.97,0002.23
2024-04-15 07:32:00,SystemResetWarning,0820.3,5.00,000.00,026.3,025.7,000.0,034.7,028.1,007.8,0000.0,0003.32,0008.16,0002.24
2024-04-15 07:33:00,SystemResetWarning,0820.3,5.00,000.00,026.3,025.7,000.0,034.7,028.1,007.9,0000.0,0003.28,0007.77,0002.25
2024-04-15 07:34:00,SystemResetWarning,0820.3,4.99,000.00,026.3,025.7,000.0,034.7,028.2,007.9,0000.0,0003.25,0007.12,0002.24
2024-04-15 07:35:00,SystemResetWarning,0820.2,5.00,000.00,026.3,025.7,000.0,034.7,028.2,007.9,0000.0,0003.24,0006.14,0002.22
2024-04-15 07:36:00,SystemResetWarning,0820.3,4.99,000.00,026.3,025.7,000.0,034.7,028.1,007.8,0000.0,0003.21,0006.13,0002.21
2024-04-15 07:37:00,SystemResetWarning,0820.1,5.00,000.00,026.3,025.7,000.0,034.7,028.1,007.8,0000.0,0003.22,0006.32,0002.20
2024-04-15 07:38:00,SystemResetWarning,0820.1,5.00,000.00,026.3,025.6,000.0,034.7,028.1,007.8,0000.0,0003.25,0006.58,0002.18
2024-04-15 07:39:00,SystemResetWarning,0820.2,5.00,000.00,026.3,025.6,000.0,034.7,028.1,007.7,0000.0,0003.30,0006.92,0002.17
2024-04-15 07:40:00,SystemResetWarning,0820.1,5.00,000.00,026.3,025.6,000.0,034.7,028.1,007.7,0000.0,0003.27,0007.17,0002.16
2024-04-15 07:41:00,SystemResetWarning,0820.1,5.00,000.00,026.3,025.6,000.0,034.7,028.1,007.6,0000.0,0003.23,0007.34,0002.15
2024-04-15 07:42:00,SystemResetWarning,0820.1,5.01,000.00,026.3,025.6,000.0,034.7,028.1,007.6,0000.0,0003.26,0007.39,0002.13
2024-04-15 07:43:00,SystemResetWarning,0820.0,5.01,000.00,026.3,025.6,000.0,034.7,028.1,007.5,0000.0,0003.23,0007.21,0002.12
2024-04-15 07:44:00,SystemResetWarning,0820.0,4.99,000.00,026.3,025.6,000.0,034.7,028.1,007.5,0000.0,0003.21,0007.12,0002.09
2024-04-15 07:45:00,SystemResetWarning,0820.0,4.99,000.00,026.3,025.6,000.0,034.7,028.1,007.4,0000.0,0003.21,0007.18,0002.06
2024-04-15 07:46:00,SystemResetWarning,0820.0,5.00,000.00,026.3,025.6,000.0,034.7,028.1,007.4,0000.0,0003.20,0007.17,0002.05
2024-04-15 07:47:00,SystemResetWarning,0820.3,4.99,000.00,026.3,025.6,000.0,034.7,028.1,007.4,0000.0,0003.24,0007.34,0002.04
2024-04-15 07:48:00,SystemResetWarning,0820.1,5.00,000.00,026.3,025.6,000.0,034.7,028.1,007.3,0000.0,0003.22,0007.18,0002.03
2024-04-15 07:49:00,SystemResetWarning,0820.0,5.01,000.00,026.3,025.5,000.0,034.7,028.1,007.2,0000.0,0003.15,0006.84,0002.02
2024-04-15 07:50:00,SystemResetWarning,0820.1,5.00,000.00,026.3,025.6,000.0,034.7,028.1,007.2,0000.0,0003.06,0006.28,0002.02
2024-04-15 07:51:00,SystemResetWarning,0820.0,5.00,000.00,026.3,025.6,000.0,034.7,028.1,007.3,0000.0,0003.08,0006.01,0002.01
2024-04-15 07:52:00,SystemResetWarning,0820.0,5.01,000.00,026.3,025.6,000.0,034.7,028.1,007.4,0000.0,0003.08,0005.57,0002.00
2024-04-15 07:53:00,SystemResetWarning,0820.0,5.00,000.00,026.3,025.6,000.0,034.7,028.1,007.5,0000.0,0002.99,0005.34,0001.99
2024-04-15 07:54:00,SystemResetWarning,0820.0,5.00,000.00,026.3,025.6,000.0,034.7,028.1,007.6,0000.0,0003.02,0005.51,0001.97
2024-04-15 07:55:00,SystemResetWarning,0820.0,5.00,000.00,026.3,025.6,000.0,034.7,028.1,007.7,0000.0,0003.02,0006.34,0001.96
2024-04-15 07:56:00,SystemResetWarning,0820.0,4.99,000.00,026.3,025.5,000.0,034.7,028.1,007.6,0000.0,0002.99,0006.62,0001.96
2024-04-15 07:57:00,SystemResetWarning,0820.1,5.00,000.00,026.3,025.5,000.0,034.7,028.1,007.3,0000.0,0003.05,0006.80,0001.95
2024-04-15 07:58:00,SystemResetWarning,0820.1,5.00,000.00,026.3,025.6,000.0,034.7,028.1,007.2,0000.0,0003.00,0006.83,0001.95
2024-04-15 07:59:00,SystemResetWarning,0820.0,5.01,000.00,026.3,025.5,000.0,034.7,028.1,007.1,0000.0,0003.05,0007.12,0001.95
